Calgary Springbank, Alberta

7:40 PM MST on February 07, 2016 (GMT -0700)
Springbank

Weather History for CYBW - May, 2013

Change the Weather History Date:

Saturday, May 18, 2013

  Actual Average Record
Temperature  
Mean Temperature 46 °F -  
Max Temperature 66 °F 59 °F 78 °F (2006)
Min Temperature 27 °F 37 °F 24 °F (2003)
Degree Days  
Heating Degree Days 18    
Moisture  
Dew Point 36 °F    
Average Humidity 54    
Maximum Humidity 100    
Minimum Humidity 26    
Precipitation  
Precipitation 0.00 in - - ()
Sea Level Pressure  
Sea Level Pressure 30.00 in    
Wind  
Wind Speed 7 mph ()    
Max Wind Speed 22 mph    
Max Gust Speed 28 mph    
Visibility 15.0 miles    
Events      
Averages and records for this station are not official NWS values.
T = Trace of Precipitation, MM = Missing Value Source: Averaged Metar Reports

Daily Weather History Graph

Daily Weather History Graph

Search for Another Location

Airport or City:

Trip Planner

Search our weather history database for the weather conditions in past years. The results will help you decide how hot, cold, wet, or windy it might be!

Date:

Astronomy

May. 18, 2013 Rise Set
Actual Time 5:42 AM MDT 9:26 PM MDT
Civil Twilight 5:00 AM MDT 10:08 PM MDT
Nautical Twilight 4:03 AM MDT 11:05 PM MDT
Astronomical Twilight 2:35 AM MDT 12:37 AM MDT
Moon 1:48 PM MDT (5/18) 2:25 AM MDT (5/18)
Length of Visible Light 17h 07m
Length of Day
15h 43m
First Quarter, 56% of the Moon is Illuminated
May 18
First Quarter
May 24
Full
May 31
Last Quarter
Jun 8
New
Jun 16
First Quarter

Hourly Weather History & Observations

Time (MDT) Temp. Windchill Dew Point Humidity Pressure Visibility Wind Dir Wind Speed Gust Speed Precip Events Conditions
5:00 AM 30.2 °F 22.6 °F 28.4 °F 93% 30.01 in 30.0 mi WNW 8.1 mph - N/A   Clear
6:00 AM 29 °F - 28 °F 95% 30.02 in 28 mi WNW 4.6 mph - -   Partly Cloudy
6:00 AM 28.4 °F 23.3 °F 28.4 °F 100% 30.02 in 30.0 mi WNW 4.6 mph - N/A   Scattered Clouds
7:00 AM 32.0 °F 27.5 °F 30.2 °F 93% 30.02 in 30.0 mi WNW 4.6 mph - N/A   Scattered Clouds
8:00 AM 42.8 °F 40.1 °F 37.4 °F 81% 30.01 in 30.0 mi NW 4.6 mph - N/A   Scattered Clouds
9:00 AM 50.0 °F - 39.2 °F 66% 29.99 in 30.0 mi NW 3.5 mph - N/A   Scattered Clouds
10:00 AM 57.2 °F - 39.2 °F 51% 29.99 in 30.0 mi ESE 3.5 mph - N/A   Scattered Clouds
11:00 AM 62.6 °F - 37.4 °F 39% 29.98 in 30.0 mi SSE 6.9 mph - N/A   Scattered Clouds
12:00 PM 63 °F - 36 °F 26% 29.98 in 28 mi SE 4.6 mph - -   Mostly Cloudy
12:00 PM 62.6 °F - 35.6 °F 37% 29.98 in 30.0 mi ESE 6.9 mph - N/A   Mostly Cloudy
1:00 PM 66.2 °F - 37.4 °F 35% 29.97 in 30.0 mi South 12.7 mph 19.6 mph N/A   Mostly Cloudy
2:00 PM 64.4 °F - 33.8 °F 32% 29.97 in 30.0 mi SSE 9.2 mph 19.6 mph N/A   Mostly Cloudy
2:19 PM 60.8 °F - 35.6 °F 39% 29.99 in 30.0 mi SSW 16.1 mph 25.3 mph N/A   Mostly Cloudy
3:00 PM 57.2 °F - 39.2 °F 51% 30.01 in 30.0 mi WSW 21.9 mph 27.6 mph N/A   Mostly Cloudy
4:00 PM 60.8 °F - 37.4 °F 42% 30.00 in 30.0 mi West 8.1 mph - N/A   Overcast
5:00 PM 64.4 °F - 39.2 °F 40% 29.99 in 30.0 mi South 12.7 mph 19.6 mph N/A   Mostly Cloudy
6:00 PM 61 °F - 38 °F 30% 30.01 in 28 mi South 11.5 mph - -   Scattered Clouds
6:00 PM 60.8 °F - 37.4 °F 42% 30.01 in 30.0 mi South 11.5 mph - N/A   Mostly Cloudy
7:00 PM 62.6 °F - 37.4 °F 39% 30.01 in 30.0 mi SE 12.7 mph 18.4 mph N/A   Mostly Cloudy
8:00 PM 59.0 °F - 37.4 °F 45% 30.01 in 30.0 mi SSE 11.5 mph - N/A   Mostly Cloudy
9:00 PM 53.6 °F - 35.6 °F 51% 30.01 in 30.0 mi SSE 8.1 mph - N/A   Scattered Clouds
10:00 PM 51.8 °F - 35.6 °F 54% 29.99 in 15.0 mi SSE 11.5 mph - N/A   Partly Cloudy